STARLINK-35777, 66975

Orbit data source: Space-Track

STARLINK-35777, 66975 is a payload satellite owned by SpaceX/Seattle (US) in LEO that was launched on Mon, 08 Dec 2025 UTC via an FALCON 9 launch vehicle from the Air Force Eastern Test Range (AFETR). Payload-class satellites include a variety of spacecraft equipped with specific instruments for various scientific and technological missions. These include communications satellites like Starlink; space stations such as the ISS; scientific satellites like the Hubble; Earth observation satellites from companies like Planet Labs, Umbra, and HawkEye 360; GPS; miniature CubeSats for education and research; and military/defense satellites.

Loading next visibility...
Identifier
66975, 2025-288S
Orbit
LEO
Country
Flag of USUS
Related business
Manufacturer
SpaceX/Seattle
Mission
Operational Commercial Communications
Bus & Motor
STARLINK V2MO, Unknown motor
Mass
575 kg wet, ~530 kg dry
Launch date (UTC)
2025-12-08 (7 months ago)
Launch vehicle
FALCON 9
Launch site
Air Force Eastern Test Range (AFETR)
Object type
Payload
Rocket body
Debris
Shape & HBR
Box + 2 Pan, 17.7 m
Radar Cross Section
36.964 m², Large (>1 m²)

Expand to show TLE details & history
Last TLE update: 11 hours ago

TLE from 11 hours ago
0 STARLINK-35777
1 66975U 25288S   26177.56490899  .00000805  00000-0  38794-4 0  9999
2 66975  42.9991 129.0010 0001679 274.1263  85.9397 15.27571473 31939
Epoch: 2026-06-26T13:33Z
TLE epoch observation values (Epoch: 2026-06-26T13:33:28.136Z)
Latitude
-0.00001°
Longitude
10.94216°
Altitude
482.769 km
Speed
7.626 km/s
True Right ascension
08h 36m 00s
True Declination
0° 00' 00"
Sunlit
Object was in daylight at epoch
Visualization orbit readout
Latitude
Unknown
Longitude
Unknown
Altitude
Unknown
Speed
Unknown
Apparent Right ascension
Unknown
Apparent Declination
Unknown
Sunlit
N/A
Visualization observer readout
Local Sidereal Time
12:11:49
Azimuth
Unknown
Elevation
Unknown
Doppler factor
Unknown
Orbital elements
Apogee altitude
486.172 km
Perigee altitude
483.868 km
Semi-major axis
6,863.157 km
Eccentricity
0.00017
Inclination
42.9991°
RAAN
129.001°
Arg. of periapsis
274.1263°
True anomaly
85.95889°
Mean anomaly
85.9397°
Eccentric anomaly
85.9493°
Mean motion
3.81731 °/min
Orbital period
94.31 mins
BSTAR
0.000038794
Loading maneuver chart data...
Computing Atmospheric mass density...
Loading historical data...
Loading historical data...
Loading historical data...
Loading historical data...
Loading historical data...
Loading historical data...
Loading historical data...

Documentation

Showing up to 5 results
|